Flag for Brazil Weather past 2 weeks in Florianópolis, Santa Catarina, Brazil

Now
66 °F

Broken clouds.


Feels Like: 66 °F
Forecast: 57 / 66 °F
Wind: No wind

Location: Florianopolis Aeroporto

Current Time: Sep 5, 2015 at 10:19:45 AM

Latest Report: Sep 5, 2015 at 10:00 AM


Visibility: N/A

Pressure: 30.18 "Hg

Humidity: 83%

Dew point: 61 °F

Location of FlorianópolisLocation

Historic Weather in Florianópolis — Graph

°F

Florianópolis temperature yesterday

Maximum temperature yesterday: 68 °F (at 2:00 PM)
Minimum temperature yesterday: 61 °F (at 12:00 AM)
Average temperature yesterday: 64 °F

Past Weeks' High & Low Weather Summary

 TemperatureHumidityPressure
High88 °F (Aug 31, 2:00 PM)100% (Sep 3, 5:00 AM)30.30 "Hg (Sep 3, 5:00 AM)
Low55 °F (Aug 28, 5:00 AM)33% (Aug 31, 2:00 PM)29.80 "Hg (Aug 23, 7:00 AM)
Average66 °F80%30.07 "Hg
* Reported Aug 21 9:00 AM — Sep 5 9:00 AM, Florianópolis, Weather by CustomWeather, © 2015

Note: Actual official high and low records may vary slightly from our data, if they occured in-between our weather recording intervals... More about our weather records

Advertising

Florianópolis weather history for previous 24 hours

 ConditionsComfort  
Time TempWeatherWind HumidityBarometerVisibility
9:00 AM
Sat, Sep 5
66 °FBroken clouds.No wind78%30.18 "HgN/A
8:00 AM63 °FBroken clouds.No wind88%30.18 "HgN/A
7:00 AM61 °FBroken clouds.2 mph94%30.15 "HgN/A
6:00 AM61 °FPartly sunny.5 mph94%30.15 "HgN/A
5:00 AM59 °FPassing clouds.5 mph94%30.15 "HgN/A
4:00 AM59 °FPassing clouds.5 mph94%30.18 "HgN/A
3:00 AM61 °FPassing clouds.6 mph88%30.18 "HgN/A
2:00 AM61 °FPassing clouds.5 mph88%30.18 "HgN/A
1:00 AM61 °FPassing clouds.No wind88%30.18 "HgN/A
12:00 AM61 °FPassing clouds.5 mph88%30.18 "HgN/A
11:00 PM
Fri, Sep 4
61 °FPassing clouds.3 mph94%30.21 "HgN/A
10:00 PM61 °FPassing clouds.6 mph94%30.18 "HgN/A
9:00 PM61 °FPassing clouds.3 mph94%30.18 "HgN/A
8:00 PM61 °FFog.2 mph94%30.18 "Hg3 mi
7:00 PM61 °FFog.2 mph94%30.15 "Hg3 mi
6:00 PM63 °FPassing clouds.3 mph88%30.12 "Hg4 mi
5:00 PM64 °FBroken clouds.3 mph83%30.12 "HgN/A
4:00 PM66 °FBroken clouds.9 mph83%30.09 "HgN/A
3:00 PM64 °FPartly sunny.7 mph88%30.09 "Hg5 mi
2:00 PM68 °FPartly sunny.6 mph73%30.09 "HgN/A
1:00 PM64 °FPartly sunny.8 mph83%30.09 "HgN/A
12:00 PM66 °FPartly sunny.9 mph83%30.09 "HgN/A
11:00 AM66 °FLight rain. Partly sunny.10 mph88%30.09 "Hg5 mi
10:00 AM66 °FLight rain. Partly sunny.9 mph83%30.09 "Hg2 mi
Weather by CustomWeather, © 2015

See weather overviewHow to use our weather pages